Location: Newark
(27.9675°N, 86.8869°E)
Time: 20:28:42
(UTC+00:00)

deb Explorer IX - Pass Details

Date: 27 October 2019
Orbit: 546 x 1105 km, 38.8° (Epoch: 12 November)

Event Time Altitude Azimuth Distance (km) Brightness Sun altitude
Rises 07:19:29 0° 299° (WNW) 2,969 ? 44.6°
Reaches altitude 10° 07:22:03 10° 312° (NW) 2,141 ? 44.3°
Maximum altitude 07:26:16 26° 9° (N) 1,455 ? 43.9°
Drops below altitude 10° 07:31:04 10° 66° (ENE) 2,459 ? 43.3°
Sets 07:34:13 0° 78° (ENE) 3,506 ? 42.9°
